[[{"header":{"parameterUnit":"m.s-1","parameterCategory":1,"la1":30.2991,"la2":30.254,"lo1":-89.0895,"lo2":-89.0444,"dy":0.0017,"dx":0.0017,"nx":28,"ny":28,"refTime":"2023-11-05T03:00:00:Z","depth":0,"parameterNumber":2,"parameterNumberName":"U-component_of_WINDS"},"data":[0,0,0,0,0,0,0,0,0,0,0,0,0,0,0,0,0,0,0,0,0,0,0,0,0,0,0,0,0,0,0,0,0,0,0,0,0,0,0,0,0,0,0,0,0,0,0,0,0,0,0,0,0,0,0,0,0,0,1.0253,1.0253,0,1.023,1.0229,1.0229,1.0181,1.018,1.0179,1.0178,1.0153,1.0153,1.0153,0,0,0,0,0,0,0,0,0,0,0,0,0,1.0256,1.0257,1.0253,1.0253,1.0253,1.023,1.0229,1.0229,1.0181,1.018,1.0178,1.0177,1.0153,1.0153,1.0153,0,0,0,0,0,0,0,0,0,0,0,0,0,1.0246,1.0257,1.0253,1.0226,1.0223,1.023,1.0229,1.0229,1.0181,1.018,1.0178,1.0177,1.0153,1.0153,1.0153,1.0184,0,0,1.0154,1.0154,0,0,0,0,0,0,0,0,1.0247,1.0246,1.023,1.0228,1.0225,1.0207,1.0221,1.0214,1.0181,1.0197,1.0178,1.0176,1.0172,1.017,1.0169,1.0183,1.0182,1.0154,1.0155,1.0155,1.0155,0,0,0,0,0,0,0,1.0248,1.0247,1.0244,1.023,1.0227,1.0215,1.0212,1.022,1.0193,1.0195,1.0192,1.019,1.017,1.0169,1.0168,1.0182,1.0154,1.0155,1.0155,1.0155,1.0222,1.0224,0,0,0,0,0,0,1.0252,1.0248,1.0244,1.0243,1.0232,1.0216,1.0212,1.0214,1.0192,1.0188,1.0191,1.0188,1.0169,1.0168,1.0167,1.0203,1.0155,1.0155,1.0155,1.0221,1.0223,1.0224,0,0,0,0,0,0,1.0253,1.0252,1.0245,1.0244,1.0243,1.0217,1.0219,1.0214,1.0213,1.0189,1.0184,1.0195,1.0168,1.0167,1.0181,1.0202,1.0155,1.0156,1.0219,1.0221,1.0223,1.0276,0,0,0,0,0,0,1.0253,1.0253,1.0264,1.0245,1.0243,1.026,1.0221,1.0215,1.0214,1.0209,1.0192,1.0187,1.0167,1.0181,1.0181,1.0201,1.0156,1.0217,1.022,1.0223,1.0272,1.028,1.0286,0,0,0,0,0,1.0253,1.0279,1.0265,1.0265,1.0257,1.0261,1.026,1.0236,1.0216,1.0227,1.0212,1.0188,1.02,1.0183,1.0183,1.0203,1.0215,1.0219,1.0222,1.0269,1.0278,1.0286,0,0,0,0,0,0,1.0301,1.0276,1.026,1.0281,1.0274,1.0253,1.0266,1.0246,1.0244,1.0239,1.021,1.0206,1.0225,1.0215,1.0197,1.0233,1.0204,1.0207,1.0239,1.0247,1.0254,1.0256,1.0156,0,0,0,0,0,1.0314,1.032,1.0298,1.0318,1.0315,1.0292,1.0293,1.0275,1.0266,1.0263,1.0248,1.0241,1.0243,1.0244,1.0245,1.0271,1.0267,1.0285,1.0292,1.0298,1.0302,1.0316,1.0324,1.0236,1.0236,1.0236,0,0,1.034,1.0328,1.0333,1.0327,1.032,1.0327,1.0289,1.0298,1.0303,1.0264,1.0277,1.0266,1.0256,1.0276,1.0285,1.0269,1.0325,1.0302,1.0307,1.0308,1.032,1.0329,1.0336,1.0238,1.0238,1.0237,0,0,1.0393,1.0384,1.04,1.0394,1.0383,1.0367,1.0372,1.0354,1.0346,1.0359,1.033,1.0336,1.034,1.0334,1.0331,1.0384,1.0361,1.0384,1.0421,1.0435,1.0442,1.0448,1.0468,1.0475,1.0388,1.0388,1.0388,0,1.0427,1.0437,1.0411,1.0422,1.0421,1.0387,1.0404,1.0399,1.0389,1.0389,1.0372,1.0377,1.0367,1.0387,1.04,1.0398,1.0403,1.0386,1.0444,1.0449,1.0455,1.0473,1.048,1.0391,1.0391,1.0391,1.039,0,1.048,1.0487,1.0502,1.0494,1.0495,1.0509,1.0486,1.0489,1.0472,1.0459,1.0473,1.0461,1.0459,1.0462,1.0445,1.048,1.047,1.0449,1.0418,1.0466,1.0483,1.049,1.0395,1.0394,1.0393,1.0393,0,0,1.0561,1.054,1.0546,1.0543,1.0529,1.0534,1.0547,1.0546,1.055,1.0544,1.0555,1.056,1.0541,1.0538,1.052,1.0533,1.0577,1.0509,1.0509,1.0523,1.0615,1.0632,1.0641,1.0562,1.0563,1.0564,1.0617,0,1.0611,1.0632,1.061,1.0636,1.0643,1.0611,1.0623,1.0616,1.0604,1.0608,1.0595,1.06,1.0573,1.0571,1.0583,1.0569,1.0595,1.0565,1.0572,1.0572,1.0576,1.0649,1.0666,1.0717,1.0623,1.0624,1.0625,0,1.0671,1.067,1.0696,1.0683,1.0685,1.0695,1.0693,1.0698,1.069,1.068,1.0678,1.0657,1.067,1.064,1.0657,1.0637,1.0639,1.0633,1.0634,1.0634,1.0602,1.0652,1.0732,1.074,1.0635,1.0634,1.0633,0,1.0729,1.0733,1.075,1.0748,1.0732,1.0741,1.0734,1.0725,1.0726,1.0725,1.0725,1.0725,1.0725,1.0725,1.0705,1.0685,1.0725,1.0693,1.0718,1.0719,1.0728,1.0727,1.081,1.0728,1.0728,1.0728,1.0728,0,1.0786,1.0804,1.0776,1.0786,1.0806,1.0781,1.0801,1.0792,1.0784,1.0792,1.0765,1.0773,1.0746,1.0752,1.0736,1.0753,1.0753,1.0746,1.0742,1.0749,1.075,1.075,1.0746,1.073,1.073,1.0729,1.0729,0,1.0854,1.0835,1.0852,1.0836,1.0833,1.0848,1.0834,1.0844,1.0831,1.0842,1.0843,1.0823,1.0828,1.0808,1.081,1.0799,1.0825,1.0815,1.0828,1.0825,1.0851,1.0849,1.0937,1.0947,1.0859,1.086,1.086,0,1.0892,1.0905,1.0892,1.0896,1.0891,1.0898,1.0899,1.0876,1.0879,1.0872,1.0882,1.0886,1.0887,1.0898,1.0883,1.0885,1.0875,1.0905,1.0875,1.0882,1.0876,1.0876,1.0877,1.0912,1.0913,1.0914,1.0914,0,1.0963,1.0953,1.0957,1.0958,1.0961,1.096,1.0957,1.0962,1.0937,1.0942,1.0948,1.0949,1.0952,1.0956,1.0955,1.0949,1.0928,1.0924,1.093,1.0938,1.0945,1.0942,1.0846,1.0922,1.0921,1.0921,1.092,1.092,1.1017,1.1028,1.102,1.1026,1.1022,1.102,1.1029,1.1018,1.1022,1.1023,1.1009,1.1018,1.1011,1.1008,1.1004,1.1011,1.0997,1.1005,1.1007,1.101,1.1015,1.0944,1.101,1.101,1.101,1.101,1.1009,0,1.1087,1.1081,1.1086,1.1084,1.1088,1.1069,1.1066,1.1071,1.1079,1.1075,1.1077,1.1085,1.1089,1.1076,1.1078,1.1087,1.1077,1.1088,1.1087,1.1086,1.1027,1.1022,1.1096,1.1096,1.1096,1.1096,1.1096,1.1096,1.1123,1.1141,1.1132,1.1148,1.1141,1.115,1.115,1.115,1.1146,1.1156,1.116,1.1151,1.1143,1.1145,1.1149,1.1145,1.1147,1.1162,1.1154,1.1099,1.109,1.1082,1.1078,1.1162,1.1162,1.1214,1.1214,1.1215]},{"header":{"parameterUnit":"m.s-1","parameterCategory":1,"la1":30.2991,"la2":30.254,"lo1":-89.0895,"lo2":-89.0444,"dy":0.0017,"dx":0.0017,"nx":28,"ny":28,"refTime":"2023-11-05T03:00:00:Z","depth":0,"parameterNumber":3,"parameterNumberName":"V-component_of_WINDS"},"data":[0,0,0,0,0,0,0,0,0,0,0,0,0,0,0,0,0,0,0,0,0,0,0,0,0,0,0,0,0,0,0,0,0,0,0,0,0,0,0,0,0,0,0,0,0,0,0,0,0,0,0,0,0,0,0,0,0,0,-1.9818,-1.9819,0,-1.9887,-1.9887,-1.9888,-1.9884,-1.9883,-1.9883,-1.9882,-1.9951,-1.9954,-1.9956,0,0,0,0,0,0,0,0,0,0,0,0,0,-1.9685,-1.9687,-1.9818,-1.9819,-1.982,-1.9886,-1.9887,-1.9888,-1.9885,-1.9883,-1.9882,-1.9881,-1.995,-1.9953,-1.9957,0,0,0,0,0,0,0,0,0,0,0,0,0,-1.9747,-1.9688,-1.9818,-1.9826,-1.9827,-1.9886,-1.9887,-1.9889,-1.9885,-1.9883,-1.9882,-1.9881,-1.9949,-1.9953,-1.9957,-2.0012,0,0,-1.997,-1.9972,0,0,0,0,0,0,0,0,-1.9743,-1.9752,-1.9824,-1.9825,-1.9827,-1.9875,-1.9866,-1.993,-1.9885,-1.9863,-1.9882,-1.988,-1.9927,-1.9933,-1.9949,-2.0015,-2.0018,-1.997,-1.9973,-1.9974,-1.9976,0,0,0,0,0,0,0,-1.9739,-1.9749,-1.9845,-1.9825,-1.9827,-1.9826,-1.9834,-1.9878,-1.9902,-1.9865,-1.9865,-1.9873,-1.9928,-1.9945,-1.995,-2.0019,-1.997,-1.9974,-1.9976,-1.9978,-2.0138,-2.0139,0,0,0,0,0,0,-1.9733,-1.9745,-1.9843,-1.9847,-1.9781,-1.983,-1.9838,-1.9861,-1.9902,-1.9907,-1.9874,-1.9873,-1.9939,-1.9946,-1.9953,-2.0022,-1.9974,-1.9978,-1.9981,-2.0136,-2.0138,-2.014,0,0,0,0,0,0,-1.973,-1.9742,-1.984,-1.9796,-1.9809,-1.9834,-1.986,-1.9863,-1.9881,-1.9909,-1.9913,-1.9887,-1.9938,-1.9947,-1.9998,-2.0024,-1.998,-1.9984,-2.0134,-2.0137,-2.0139,-2.0159,0,0,0,0,0,0,-1.9726,-1.9741,-1.9761,-1.9797,-1.9811,-1.9884,-1.9862,-1.9866,-1.9888,-1.9887,-1.9922,-1.9927,-1.9937,-1.9992,-2.0002,-2.0029,-1.9987,-2.0132,-2.0135,-2.0138,-2.0156,-2.0162,-2.0167,0,0,0,0,0,-1.9721,-1.9763,-1.9762,-1.9774,-1.9837,-1.9885,-1.9893,-1.9905,-1.989,-1.9912,-1.993,-1.9926,-2.002,-1.9997,-2.0009,-2.0037,-2.013,-2.0134,-2.0138,-2.0154,-2.0161,-2.0167,0,0,0,0,0,0,-1.9729,-1.9768,-1.9767,-1.9822,-1.985,-1.9884,-1.9912,-1.9911,-1.9944,-1.9942,-1.9954,-1.9962,-2.0014,-2.0031,-2.0005,-2.0094,-2.0073,-2.008,-2.0081,-2.0088,-2.0094,-2.0089,-1.9991,0,0,0,0,0,-1.9737,-1.9773,-1.9805,-1.985,-1.9865,-1.9886,-1.9907,-1.9914,-1.9943,-1.9955,-1.9977,-2.0007,-2.0043,-2.0067,-2.0101,-2.0159,-2.0168,-2.0185,-2.019,-2.0194,-2.02,-2.0234,-2.0242,-2.0153,-2.0153,-2.0153,0,0,-1.9754,-1.978,-1.9801,-1.9852,-1.9875,-1.9912,-1.9896,-1.9935,-1.9963,-1.9961,-2.0011,-2.0029,-2.0063,-2.0118,-2.0143,-2.0133,-2.0227,-2.0199,-2.0203,-2.0206,-2.0239,-2.0247,-2.0255,-2.0156,-2.0155,-2.0155,0,0,-1.9804,-1.9827,-1.9868,-1.9892,-1.9927,-1.9942,-1.9952,-1.9987,-1.9999,-2.005,-2.005,-2.0083,-2.0145,-2.017,-2.0191,-2.0254,-2.0252,-2.0265,-2.0293,-2.0326,-2.0334,-2.034,-2.0364,-2.0372,-2.027,-2.027,-2.027,0,-1.982,-1.9876,-1.9889,-1.993,-1.9953,-1.9954,-1.9997,-2.0019,-2.0064,-2.008,-2.0069,-2.0149,-2.0171,-2.0234,-2.0249,-2.0265,-2.0278,-2.026,-2.0332,-2.0338,-2.0344,-2.0367,-2.0376,-2.0272,-2.0271,-2.0271,-2.0271,0,-1.9896,-1.9935,-1.9964,-2.0009,-2.0035,-2.0077,-2.0096,-2.0122,-2.0127,-2.0143,-2.0196,-2.0224,-2.0265,-2.028,-2.0285,-2.0344,-2.0338,-2.0329,-2.0308,-2.0354,-2.0376,-2.0385,-2.0274,-2.0273,-2.0273,-2.0272,0,0,-1.995,-2.0004,-2.0014,-2.0036,-2.0077,-2.0108,-2.015,-2.0192,-2.0214,-2.0246,-2.0283,-2.0336,-2.033,-2.0353,-2.0361,-2.039,-2.0441,-2.0378,-2.0379,-2.039,-2.051,-2.0517,-2.0527,-2.044,-2.0442,-2.0443,-2.0508,0,-2.0006,-2.0081,-2.0095,-2.0161,-2.0198,-2.0202,-2.0239,-2.0268,-2.0285,-2.032,-2.0338,-2.0377,-2.0364,-2.0379,-2.0408,-2.0428,-2.0465,-2.0424,-2.0475,-2.0477,-2.0467,-2.0538,-2.0545,-2.0605,-2.0517,-2.0518,-2.0519,0,-2.0079,-2.0115,-2.0185,-2.0223,-2.0239,-2.0273,-2.0314,-2.0346,-2.0381,-2.0391,-2.0419,-2.0425,-2.047,-2.0448,-2.0511,-2.0483,-2.0505,-2.0519,-2.0521,-2.0527,-2.0501,-2.0547,-2.0624,-2.0633,-2.0532,-2.0531,-2.053,0,-2.0114,-2.0179,-2.023,-2.0248,-2.0294,-2.0318,-2.0338,-2.0371,-2.0396,-2.0432,-2.0449,-2.0489,-2.0512,-2.0543,-2.056,-2.0542,-2.0623,-2.0602,-2.0634,-2.0634,-2.0651,-2.065,-2.0734,-2.0664,-2.0664,-2.0664,-2.0664,0,-2.0174,-2.0217,-2.0247,-2.0278,-2.0327,-2.0343,-2.0392,-2.0411,-2.0442,-2.0478,-2.0483,-2.0517,-2.0537,-2.0574,-2.0587,-2.0639,-2.0649,-2.0659,-2.0662,-2.0659,-2.0658,-2.0674,-2.067,-2.0666,-2.0666,-2.0665,-2.0665,0,-2.0221,-2.0242,-2.0298,-2.0338,-2.0349,-2.0384,-2.0418,-2.0449,-2.0467,-2.0513,-2.0525,-2.0553,-2.0597,-2.0617,-2.0671,-2.0681,-2.074,-2.074,-2.0729,-2.073,-2.0762,-2.0759,-2.086,-2.0875,-2.0794,-2.0795,-2.0796,0,-2.0258,-2.0292,-2.0336,-2.0361,-2.0382,-2.0422,-2.0448,-2.0466,-2.0494,-2.0538,-2.0564,-2.0609,-2.0646,-2.0717,-2.0742,-2.0785,-2.0786,-2.0818,-2.0792,-2.0789,-2.0788,-2.0786,-2.0791,-2.0823,-2.0824,-2.0824,-2.0825,0,-2.0322,-2.0332,-2.037,-2.0413,-2.0445,-2.0479,-2.0512,-2.0533,-2.0556,-2.0587,-2.0633,-2.0662,-2.0719,-2.0764,-2.0809,-2.083,-2.0832,-2.0833,-2.0843,-2.0841,-2.0833,-2.0839,-2.0743,-2.0831,-2.083,-2.083,-2.0829,-2.0829,-2.0366,-2.0397,-2.0434,-2.0477,-2.0505,-2.0537,-2.0569,-2.0592,-2.0631,-2.0679,-2.0688,-2.0737,-2.0774,-2.0834,-2.0857,-2.0897,-2.0889,-2.0903,-2.0907,-2.0911,-2.0913,-2.0827,-2.0905,-2.0905,-2.0905,-2.0905,-2.0905,0,-2.0432,-2.0457,-2.0496,-2.0544,-2.0579,-2.0579,-2.0617,-2.0646,-2.0689,-2.0723,-2.076,-2.0815,-2.0859,-2.0889,-2.0935,-2.0961,-2.0963,-2.0972,-2.0971,-2.0976,-2.0917,-2.0904,-2.097,-2.097,-2.097,-2.097,-2.097,-2.097,-2.047,-2.0524,-2.0538,-2.0606,-2.063,-2.068,-2.0702,-2.0732,-2.076,-2.082,-2.0858,-2.0878,-2.0911,-2.0959,-2.1001,-2.1009,-2.1026,-2.1035,-2.1043,-2.0987,-2.098,-2.0974,-2.0962,-2.1039,-2.1039,-2.1099,-2.11,-2.11]}]]